Theta_e
323 324 325 325 325 324 324 323 323 324 328 330 326 325 332 331 327 331 331 331 336 335 338 347 347 347 345 338 337 335 335 338 338 338 340 341 344 345 346 347 346 347 347 347 348 347 348 348 348 349 349 348 349 350 351 349 343 341 340 340 341 342 343
323 322 324 326 324 326 326 321 324 328 324 331 335 327 328 328 326 331 329 326 328 328 338 354 349 344 345 343 340 336 335 337 337 338 339 340 343 344 345 346 346 347 347 347 348 347 347 347 347 348 347 347 348 349 350 347 343 341 339 339 341 342 343
325 322 321 323 323 323 326 324 326 327 322 326 330 326 326 325 325 330 328 326 330 329 336 350 344 341 344 342 341 340 338 337 336 337 339 339 342 343 344 346 346 347 348 347 348 348 348 347 346 347 346 347 348 349 349 346 342 341 339 340 342 343 343
323 324 320 319 321 321 323 325 324 325 328 328 326 325 327 325 327 331 326 323 331 334 336 342 341 343 344 340 343 343 339 335 335 337 338 339 341 342 344 345 346 347 348 348 348 348 347 346 345 347 348 347 347 347 347 344 342 341 341 341 342 343 344
321 323 323 320 322 323 322 322 322 322 325 328 326 326 329 329 330 332 327 324 334 342 339 341 342 343 342 340 345 344 336 334 336 337 337 338 340 341 342 344 345 346 347 348 348 348 348 347 346 347 349 348 346 346 346 343 342 341 341 341 342 343 344
320 324 328 325 324 325 324 322 323 323 324 324 322 322 327 329 329 332 331 324 332 345 343 339 339 343 342 340 342 342 336 333 335 337 337 338 339 340 341 342 343 345 346 347 348 348 349 349 348 348 348 348 347 346 346 344 342 341 340 340 341 343 344
324 326 328 325 323 324 325 323 324 325 326 324 319 320 326 326 324 331 331 321 331 356 353 342 343 344 339 335 336 338 335 333 335 336 336 338 339 339 340 341 342 343 345 346 347 348 349 349 348 346 347 348 347 346 346 345 342 340 340 341 341 343 344
326 325 327 326 324 324 323 323 325 324 324 324 322 327 333 328 324 328 325 321 338 373 367 351 345 340 335 333 334 335 334 335 336 335 337 338 338 339 339 340 342 342 344 346 346 348 348 348 348 347 347 348 347 347 347 346 344 341 340 342 343 343 344
321 322 323 322 321 323 324 327 326 323 326 327 326 331 331 325 326 329 325 324 340 367 369 352 345 346 347 337 332 335 335 335 336 336 337 338 338 339 339 340 341 342 343 345 345 346 347 346 346 346 347 348 348 347 347 346 346 343 342 344 344 344 346
319 319 321 323 325 327 328 330 326 324 327 325 326 329 323 322 329 330 328 332 341 354 357 347 344 354 359 345 333 335 337 335 337 338 337 338 339 338 339 339 341 342 343 344 344 345 345 345 346 346 347 348 348 347 347 347 348 346 345 345 345 346 347
321 321 327 334 336 328 323 326 325 325 326 324 329 329 323 329 334 330 339 346 336 338 347 345 347 352 356 353 340 335 336 336 337 338 337 338 339 338 339 339 340 342 342 343 344 344 345 345 345 346 346 347 347 347 347 348 348 349 348 346 346 346 347
322 325 329 334 334 325 322 325 324 325 326 324 326 325 327 338 331 325 349 359 334 332 348 350 354 354 351 351 341 334 336 337 337 338 337 338 338 338 339 339 339 341 341 342 343 343 344 345 345 346 346 346 347 347 347 348 349 351 351 349 348 347 347
324 326 325 328 330 327 327 327 325 325 326 324 323 324 330 339 328 322 346 358 339 337 349 348 352 354 347 344 338 335 337 337 336 338 337 338 339 338 339 339 339 340 340 341 342 342 343 344 344 345 346 346 347 347 348 349 350 351 351 351 350 349 350
325 324 322 326 326 326 326 326 327 327 326 325 324 325 330 333 330 329 342 351 344 339 344 346 342 338 335 334 333 335 337 337 337 337 337 338 339 339 339 340 339 339 340 340 341 341 342 342 343 344 344 346 346 346 347 349 349 351 351 351 352 351 349
324 323 324 325 322 324 324 322 326 326 323 326 323 323 331 331 329 334 339 343 343 339 342 343 332 328 332 334 334 335 337 337 337 337 338 338 339 339 340 340 340 340 340 340 340 340 341 340 341 342 343 344 345 346 347 347 349 350 350 352 352 349 346
322 323 324 324 322 323 321 319 324 324 322 325 323 325 335 334 331 336 336 335 338 340 342 339 332 333 338 337 334 334 335 338 338 338 338 339 338 339 339 340 340 340 339 339 339 338 339 340 340 340 342 343 344 345 345 346 348 350 351 352 351 349 348
324 325 322 324 322 318 319 322 323 322 324 327 325 326 334 336 335 336 332 331 336 341 342 340 339 342 342 337 333 334 335 338 338 338 339 338 339 340 340 340 340 339 338 337 337 338 338 339 339 339 341 342 343 343 344 346 348 351 352 352 351 350 349
327 330 325 324 320 317 326 338 333 325 325 325 325 329 336 341 343 342 340 340 343 342 340 341 343 341 338 335 334 334 336 337 338 339 339 339 340 340 340 340 339 339 338 338 338 338 338 338 338 339 341 342 342 344 345 347 349 351 351 351 351 350 349
329 330 324 320 321 327 340 346 337 331 326 324 331 338 342 344 345 347 350 349 347 345 339 335 335 333 331 332 333 334 336 336 338 339 339 340 340 339 340 339 339 339 338 337 337 337 337 338 339 341 342 342 344 346 347 349 350 351 351 351 351 350 349
325 324 321 321 329 340 343 339 337 338 333 331 336 337 336 339 341 347 356 356 353 348 336 328 329 330 330 332 332 333 335 336 337 339 339 339 339 338 338 339 338 338 337 337 338 338 339 340 341 342 343 344 346 347 349 350 351 352 351 351 351 350 349
331 330 326 328 333 335 337 339 339 337 334 334 338 338 335 336 336 340 352 357 351 344 334 328 329 332 333 335 335 333 334 336 337 338 337 337 337 338 338 339 339 339 338 338 338 337 337 336 336 338 341 344 347 348 349 351 352 352 352 351 351 351 351
338 336 329 330 330 329 340 348 339 333 333 332 335 338 335 335 335 334 341 347 346 342 338 332 331 333 339 343 340 335 334 335 336 338 338 338 339 338 338 338 338 337 336 335 334 333 333 333 333 334 336 341 346 348 349 351 352 352 352 352 352 352 352
335 334 332 337 336 334 344 350 339 333 332 331 333 334 332 335 336 331 334 340 340 337 335 333 334 337 342 345 340 334 334 336 336 337 338 338 338 337 337 336 334 334 333 334 333 334 334 334 334 333 334 338 342 346 348 350 351 352 352 352 352 352 352
339 339 339 340 339 337 340 341 336 333 331 331 332 331 333 338 335 329 330 335 334 331 330 333 340 342 341 341 336 333 334 336 334 335 335 334 336 335 333 333 333 333 334 334 335 336 335 335 335 333 334 336 339 343 347 349 350 350 350 351 351 352 351
344 341 338 336 338 340 338 335 333 330 330 329 329 331 335 336 331 330 331 331 331 330 331 336 342 341 337 337 335 333 335 335 334 335 334 334 335 334 332 334 334 334 335 334 334 336 337 337 335 333 334 335 337 342 345 347 348 349 350 350 350 351 350
340 339 337 334 337 337 332 330 330 330 332 335 334 334 335 331 330 333 334 332 334 336 336 338 342 342 341 341 336 334 334 334 333 334 333 333 334 333 333 335 334 334 335 335 336 338 338 338 336 334 334 335 337 341 342 344 347 348 349 350 349 349 349
338 339 336 331 334 335 329 331 337 339 340 340 335 333 333 333 333 335 335 336 337 338 339 340 342 343 343 341 338 337 337 336 336 336 336 336 337 336 338 338 337 336 338 339 341 341 340 338 337 335 335 337 338 340 341 344 348 349 349 348 348 348 347
340 342 339 331 333 333 329 331 338 338 336 335 334 334 335 335 336 335 335 337 336 334 337 338 338 339 338 337 337 339 340 340 340 339 340 340 340 338 339 339 337 336 337 339 342 342 338 337 337 337 339 341 342 343 345 348 349 349 349 348 347 346 346
337 339 340 334 332 331 329 330 331 331 333 334 335 336 337 337 337 336 336 335 332 330 331 331 331 333 333 333 335 336 337 338 337 336 337 338 338 337 336 337 338 337 337 340 342 342 339 339 340 342 343 344 345 346 348 350 350 350 348 347 345 344 344
337 335 335 332 330 329 329 330 329 330 334 336 335 336 336 336 336 334 334 334 332 329 329 328 328 327 327 328 329 329 329 330 329 330 333 334 336 337 337 338 339 339 339 340 341 342 341 342 344 345 345 345 345 346 349 350 349 348 346 345 343 342 341
344 343 338 333 331 330 329 328 329 329 332 333 334 335 335 334 334 333 332 333 331 330 330 329 329 328 327 327 326 326 325 326 326 328 329 329 331 334 337 339 341 340 341 342 341 342 344 345 346 346 346 346 346 348 350 349 346 345 343 341 340 339 340
346 346 338 332 330 329 328 328 327 328 329 330 331 332 332 332 332 332 332 331 331 331 331 330 330 330 328 327 328 327 326 326 325 325 326 327 327 328 330 334 338 341 344 344 343 344 346 348 348 348 347 347 348 350 349 346 343 342 341 339 338 337 338
339 336 333 332 333 332 330 328 328 327 327 328 328 328 329 329 329 329 329 329 330 330 330 329 329 327 326 326 328 328 327 328 328 327 327 328 327 326 327 328 331 336 340 341 343 347 349 350 350 349 348 347 347 348 346 343 341 340 339 338 336 336 336
337 335 334 333 336 336 333 329 327 326 325 325 326 326 326 326 326 326 326 327 327 327 327 327 326 326 327 330 332 332 333 333 332 331 330 329 328 328 329 329 331 335 338 340 344 347 349 350 349 348 346 344 345 345 344 342 340 339 338 337 335 335 336
333 332 331 330 331 332 329 326 326 325 323 323 324 323 323 323 324 325 325 325 326 327 327 326 327 327 329 332 334 334 334 333 333 331 330 329 329 328 327 327 331 336 338 339 341 344 346 347 347 346 344 342 344 344 342 340 339 338 338 337 336 336 335
326 324 325 325 324 323 323 323 324 323 321 322 322 321 322 322 322 323 324 324 325 326 327 327 328 329 330 332 334 334 334 335 335 333 332 330 329 329 328 330 333 337 338 339 339 340 342 344 344 344 342 342 343 342 340 337 335 334 335 335 334 333 330
323 321 321 321 320 320 321 321 321 321 321 321 321 321 321 321 321 322 322 322 323 324 325 326 327 328 330 331 332 334 336 337 337 336 334 333 332 332 332 333 336 337 338 338 338 338 339 341 342 342 341 341 342 340 337 334 331 330 330 330 329 330 328
Wind_Speed
6 8 8 8 7 5 2 3 4 5 6 7 4 2 1 3 2 2 2 3 3 2 7 9 4 5 9 12 12 16 20 20 23 29 33 36 39 43 45 48 49 49 49 49 49 48 48 48 47 46 46 45 44 43 41 39 39 39 38 37 37 36 35
9 11 10 6 7 8 5 4 7 3 3 3 3 2 2 3 2 4 2 5 4 2 4 7 4 7 12 12 11 12 13 16 23 30 35 37 41 44 46 47 49 49 49 50 50 50 48 47 46 46 45 45 45 43 42 41 41 41 40 39 38 37 36
6 6 8 6 7 6 3 4 6 5 3 1 1 3 2 1 3 3 3 4 4 5 5 5 5 11 15 15 12 8 9 16 24 30 34 38 41 43 44 46 47 47 48 50 51 50 49 47 46 45 45 45 46 45 43 42 42 42 41 40 39 38 37
3 3 6 7 8 3 3 3 4 2 3 5 3 3 4 4 4 3 2 2 3 6 7 8 11 14 15 14 12 9 11 19 28 32 34 38 41 43 44 45 46 47 49 51 51 51 50 48 46 45 46 46 46 45 45 44 44 43 42 41 41 40 38
2 2 5 9 8 5 3 3 4 2 1 3 2 1 3 4 4 4 3 3 5 7 6 10 14 14 14 15 13 11 14 23 32 34 33 37 41 43 44 45 47 48 50 51 51 52 51 49 47 47 47 47 46 46 46 46 45 45 45 44 42 41 39
4 6 7 7 9 9 8 6 6 6 4 3 2 4 1 2 3 5 5 4 7 7 6 10 14 12 11 13 13 12 17 26 31 31 32 37 41 43 45 46 47 48 49 50 50 50 50 49 48 48 48 48 48 48 47 47 47 46 46 45 44 42 40
6 9 7 5 8 7 6 6 6 7 6 6 6 6 3 1 1 2 4 3 6 7 6 9 10 8 8 11 11 12 18 24 25 27 31 35 39 42 43 44 46 47 48 48 48 49 49 49 49 49 49 50 49 49 48 48 47 47 47 46 45 43 41
4 7 5 1 3 4 3 4 4 6 7 7 7 5 4 4 3 3 2 3 6 6 4 5 7 6 8 12 16 18 20 20 20 23 29 33 37 40 41 43 44 44 44 45 45 47 48 48 49 50 50 51 51 50 50 49 48 47 47 47 45 43 42
4 5 5 4 3 3 4 4 4 6 7 6 3 2 3 5 6 7 5 4 6 6 4 3 5 6 6 10 17 21 21 19 20 23 28 33 36 38 39 40 40 40 42 43 44 46 47 48 49 50 50 51 51 51 51 51 50 48 48 48 47 45 43
6 7 6 6 5 3 3 3 6 8 9 10 5 2 4 6 5 6 6 5 6 7 6 5 6 6 6 9 13 18 21 22 22 25 30 34 37 38 38 38 38 39 40 41 43 45 45 46 48 48 49 50 50 50 51 51 50 50 50 50 48 47 46
10 9 9 7 5 5 5 6 8 9 9 11 8 5 6 6 4 4 6 6 6 7 7 8 8 6 7 8 8 14 22 25 26 29 33 34 35 36 36 35 36 37 38 40 41 42 43 44 45 45 46 47 48 49 50 50 50 51 50 51 51 50 48
15 14 13 9 7 7 8 9 10 10 9 11 10 7 7 7 6 5 8 6 8 9 9 10 10 8 7 7 9 16 24 27 28 28 28 28 30 31 32 33 35 36 37 38 38 39 40 40 41 42 43 45 45 46 48 48 49 49 50 51 52 51 50
15 14 12 9 8 7 8 9 10 10 9 11 12 11 10 10 8 10 9 9 10 10 10 11 12 11 12 13 18 22 23 23 24 24 26 28 31 32 33 34 35 35 35 35 36 36 36 37 38 39 40 42 44 45 46 46 47 48 48 49 51 51 52
14 14 12 9 9 8 7 8 9 9 9 12 13 12 10 10 10 10 8 12 13 10 11 13 14 14 14 13 15 19 19 22 25 26 29 32 34 35 36 36 35 34 33 33 33 33 33 34 35 36 38 40 41 43 44 44 45 46 47 48 48 45 39
10 11 12 10 10 10 11 13 12 9 8 8 9 8 5 5 8 7 4 8 10 9 8 9 8 8 9 8 11 17 20 22 24 26 30 35 36 36 36 35 34 32 32 31 31 31 30 30 31 33 35 36 38 40 41 43 43 45 46 44 41 38 33
6 7 9 11 9 8 10 13 13 10 7 6 7 6 6 7 7 6 4 5 9 9 6 4 4 8 10 9 12 17 20 23 26 30 34 35 34 34 34 34 33 32 31 29 28 26 26 27 28 29 30 33 35 36 37 39 41 42 42 39 39 40 41
6 7 8 8 5 4 6 9 11 11 9 7 5 4 6 9 8 7 7 8 9 6 6 6 5 7 8 10 16 21 23 27 30 33 34 32 32 34 34 33 32 32 30 27 24 23 23 24 24 24 27 29 30 30 32 35 37 39 38 38 40 42 41
6 7 3 4 4 5 7 6 8 11 11 12 10 7 7 8 5 4 6 7 5 3 8 11 11 12 15 20 27 28 28 31 31 30 30 31 32 33 32 31 31 30 27 24 23 23 23 22 22 23 25 26 26 28 31 33 35 36 36 37 39 40 38
4 3 4 4 6 8 7 4 3 7 11 14 11 4 3 5 5 6 7 8 7 6 8 12 14 14 13 15 19 21 24 29 31 30 29 30 31 31 30 29 28 26 24 23 22 22 21 21 21 23 24 24 25 28 30 32 33 33 34 36 37 38 37
2 1 3 5 7 5 4 2 2 2 3 7 8 3 2 4 5 6 7 8 8 7 8 8 9 11 7 4 7 12 16 21 26 27 28 27 28 27 25 23 23 23 22 21 20 18 16 15 15 16 17 19 22 25 28 30 31 31 33 35 36 37 38
2 1 2 4 2 2 2 2 2 3 3 5 7 4 4 5 3 5 6 6 6 5 5 5 11 13 10 6 3 7 12 18 23 25 25 25 25 23 20 18 18 18 17 14 10 7 5 4 6 7 9 12 16 21 25 28 30 31 32 34 36 37 38
2 3 0 1 0 2 5 4 3 2 2 4 6 5 3 3 2 1 4 5 5 4 4 10 16 14 8 2 1 2 7 14 17 17 18 19 17 16 15 14 11 9 8 7 6 4 3 2 4 6 7 9 12 16 20 23 27 30 32 34 36 36 37
1 4 3 3 4 4 5 6 4 1 1 3 5 5 3 3 6 5 2 5 4 3 4 8 12 10 5 5 2 3 6 9 9 10 12 13 12 11 11 10 9 9 8 8 7 5 3 2 4 6 9 11 12 13 16 19 24 27 30 32 33 33 36
1 2 2 3 3 2 3 4 6 9 7 1 6 5 3 4 6 5 3 4 6 10 10 7 5 4 5 6 4 9 12 11 11 12 13 14 14 13 13 13 12 9 7 6 5 4 2 1 3 6 9 10 11 12 14 17 20 23 25 28 29 31 35
2 1 1 2 3 3 3 7 12 13 6 4 5 5 5 6 5 9 11 5 9 18 16 10 6 5 9 13 14 16 16 14 13 13 13 13 14 14 14 13 10 7 5 4 4 5 5 4 3 5 7 7 8 9 12 14 16 19 21 25 27 30 33
2 2 2 2 2 1 7 16 18 9 3 3 4 4 2 4 4 16 20 14 17 25 25 21 18 17 20 23 23 21 19 17 16 15 14 15 14 12 10 9 8 6 3 2 3 4 5 5 4 4 5 5 5 6 9 11 13 16 19 22 25 28 29
1 1 2 0 3 3 15 19 12 4 3 6 7 6 5 5 11 20 22 19 22 28 29 28 28 27 28 29 28 26 24 21 19 17 15 14 12 10 9 9 7 5 3 2 2 3 4 4 3 3 3 4 4 5 7 10 12 16 18 19 22 25 27
1 1 3 1 5 7 17 14 4 4 4 9 14 13 10 12 18 24 25 24 27 32 32 32 33 32 31 29 28 28 27 24 22 20 17 16 14 11 10 8 6 4 4 4 5 4 3 2 3 3 3 4 5 6 8 10 12 15 17 17 20 22 25
3 4 5 5 4 5 14 13 9 10 12 14 16 17 18 18 20 25 27 26 29 34 35 35 35 33 30 28 27 26 26 23 21 19 17 15 13 10 8 6 5 3 3 5 5 4 3 4 5 5 5 4 5 7 8 9 11 13 15 16 18 20 22
4 3 3 5 3 7 13 13 11 14 19 18 19 23 25 23 23 26 27 25 27 29 31 32 33 29 27 27 26 24 23 21 19 16 13 11 10 7 5 4 3 3 3 4 5 5 6 7 7 7 6 6 6 8 8 9 10 12 14 14 15 16 17
4 2 2 6 6 6 10 12 13 17 20 21 23 26 26 24 26 28 26 25 24 25 26 28 29 27 26 26 25 23 22 20 17 15 13 11 9 7 5 4 3 3 3 4 4 5 6 7 7 7 7 7 8 8 9 9 10 11 11 12 12 13 15
1 5 6 4 4 5 10 13 14 16 18 20 21 23 24 24 26 26 24 24 23 23 23 24 24 23 22 20 18 17 16 15 13 12 10 8 7 7 6 5 5 6 7 7 6 6 6 6 6 7 8 8 8 8 8 8 7 8 10 10 11 12 15
1 6 9 8 3 3 7 12 14 13 15 19 20 20 21 22 23 23 23 23 22 21 20 19 18 19 17 14 13 13 12 12 13 12 11 9 7 7 6 4 4 6 7 7 7 7 7 7 7 8 7 7 7 7 7 6 6 7 9 11 12 13 14
3 3 5 6 4 3 3 9 14 13 14 19 20 20 20 21 21 21 21 21 19 18 16 15 14 15 15 14 14 13 11 11 12 11 11 10 9 7 6 5 4 5 6 6 7 7 7 8 8 7 6 6 7 7 7 7 7 8 10 12 14 14 14
1 2 3 4 5 7 7 11 14 14 15 19 21 21 23 23 21 21 21 21 20 19 18 15 13 11 11 11 11 10 10 9 8 8 8 8 8 7 7 5 4 5 5 5 6 7 8 8 8 7 6 7 7 8 8 9 9 11 13 14 14 14 14
5 9 15 15 15 17 17 17 17 17 19 22 23 23 25 25 24 24 24 24 23 22 21 19 16 13 11 9 9 9 7 6 5 5 5 6 6 6 5 3 2 2 2 3 5 5 6 7 7 7 7 8 9 11 12 12 12 13 15 16 18 18 16
11 14 22 28 29 29 27 26 25 24 24 25 25 24 24 25 24 23 24 24 23 21 21 20 19 16 13 11 10 8 6 5 4 4 3 2 2 3 3 3 2 1 1 2 3 4 5 6 6 7 8 9 11 14 15 15 15 15 17 19 20 19 17
Wind_Direction
200 186 179 160 163 180 179 147 176 211 177 143 145 201 174 122 159 243 192 224 273 306 303 294 295 298 264 247 236 218 219 212 198 203 207 206 208 209 210 212 214 214 214 215 218 219 221 222 222 223 224 225 226 227 227 225 223 223 223 225 226 226 226
236 199 184 197 195 165 134 184 198 173 116 105 116 169 18 68 204 267 199 197 217 167 276 292 267 248 255 255 241 219 205 192 195 204 207 206 208 210 212 213 214 214 213 215 217 219 222 223 224 225 225 225 226 227 228 225 223 222 223 225 226 226 226
230 182 178 239 238 184 143 181 174 140 151 206 128 165 174 139 202 268 276 237 224 196 226 271 236 222 235 246 245 224 191 191 200 206 206 205 207 210 211 212 213 214 214 216 217 219 221 224 226 227 226 226 227 228 228 227 225 224 225 225 226 226 226
198 129 170 216 232 214 82 116 154 152 166 173 175 166 164 181 198 223 265 271 250 228 219 217 219 219 224 234 238 229 209 203 206 208 205 202 203 207 210 211 213 214 215 217 218 220 222 224 226 226 226 227 227 227 227 227 226 225 226 227 227 226 226
188 199 205 201 197 175 140 163 184 193 127 137 183 184 134 152 171 179 197 227 251 245 209 203 217 221 218 219 222 228 222 214 213 212 205 200 202 206 210 212 213 215 216 217 219 221 223 224 224 224 225 226 226 227 227 227 226 225 226 227 227 227 226
204 234 232 193 177 171 172 187 188 180 164 136 188 249 247 126 160 175 177 210 256 249 196 200 218 219 220 220 214 222 229 222 217 213 207 203 204 208 212 214 216 216 216 217 218 220 221 221 222 224 225 226 226 227 227 227 227 226 226 227 227 226 226
222 238 239 187 175 175 180 203 195 181 176 162 181 221 237 220 207 141 139 198 262 260 205 203 218 220 232 233 223 229 237 231 221 212 208 207 209 212 215 217 218 218 217 217 217 218 219 221 223 225 226 226 227 227 227 227 227 226 227 228 227 226 226
269 266 282 236 161 150 185 242 199 172 190 189 186 192 181 191 199 144 137 235 265 274 244 219 227 227 237 237 225 227 236 235 223 212 208 208 211 215 217 218 218 217 216 216 215 217 219 221 224 226 226 227 228 228 228 228 227 227 227 228 227 227 226
256 262 286 271 227 175 195 221 186 180 184 163 136 102 159 212 212 169 167 225 250 272 308 295 239 212 227 240 229 229 234 231 219 210 208 210 213 215 216 215 215 214 215 215 216 218 221 223 226 227 227 228 229 229 230 230 230 228 228 229 229 228 227
216 216 223 226 213 194 217 207 181 190 181 166 161 127 172 228 231 166 170 210 247 280 300 283 248 205 219 244 232 229 231 227 219 211 210 212 213 213 214 213 214 215 216 217 219 221 223 225 227 227 228 229 230 231 232 232 232 230 229 230 231 230 229
208 210 215 212 165 158 207 211 191 194 190 179 170 143 178 202 178 181 212 199 208 254 260 253 250 221 222 237 224 220 222 219 217 214 212 212 211 212 213 213 215 216 217 220 222 224 226 227 228 229 230 232 232 233 234 234 233 231 230 231 233 233 231
214 213 211 199 166 172 196 199 198 200 193 178 170 182 199 166 142 231 252 194 186 226 230 229 236 224 219 227 214 215 217 214 212 210 209 210 211 212 213 214 216 217 218 221 224 226 228 229 230 231 233 234 235 236 236 235 233 232 232 233 234 234 233
230 226 219 194 177 196 199 191 200 200 186 175 181 202 199 159 171 228 228 182 193 223 223 220 223 211 205 209 208 211 213 211 207 204 203 207 210 212 213 215 217 218 220 224 227 230 232 232 233 234 235 236 236 236 237 235 234 234 234 235 235 236 234
239 233 231 205 185 212 225 213 212 204 191 185 192 210 200 179 208 231 196 186 208 221 214 216 223 215 206 203 201 202 206 205 202 199 200 205 210 212 214 216 218 221 225 229 232 234 235 236 238 239 239 239 238 239 239 238 237 236 237 238 237 233 225
248 235 231 221 199 210 229 235 234 219 201 195 203 217 193 181 240 254 175 187 226 242 224 218 221 201 184 182 191 198 203 203 198 197 201 205 208 210 213 216 219 224 228 230 233 235 238 241 244 244 245 245 243 243 242 242 241 240 239 236 229 220 215
257 234 220 224 210 204 232 247 245 228 206 199 206 206 181 179 209 214 159 186 236 247 228 197 175 167 172 188 195 196 201 200 196 200 205 206 206 208 211 215 218 222 224 227 230 235 241 245 247 249 250 248 246 247 248 247 245 242 236 228 222 222 225
265 247 208 201 181 185 243 250 235 221 208 207 217 214 201 191 173 167 187 216 233 226 176 173 191 181 184 205 205 200 198 198 199 204 206 205 205 208 212 214 214 216 219 224 229 235 242 246 249 253 253 252 253 254 253 250 245 238 230 225 227 229 228
266 268 195 142 150 205 239 240 213 206 201 204 213 214 207 202 180 186 229 241 241 187 164 185 201 199 202 211 211 208 202 197 197 201 204 205 208 210 212 213 213 215 218 223 228 234 241 245 249 251 252 255 258 256 252 248 243 235 228 226 230 230 227
268 300 94 141 216 229 243 263 201 199 197 192 190 185 199 214 220 241 261 259 242 218 205 204 199 198 210 215 210 207 206 202 197 196 201 206 208 210 211 213 213 212 213 219 227 234 242 249 254 256 258 259 258 254 250 246 240 232 227 227 229 230 229
256 320 134 200 239 249 256 304 51 106 149 145 135 114 262 238 215 209 232 254 248 234 238 230 195 176 169 163 187 200 205 203 199 198 200 205 209 211 212 210 206 206 212 222 232 241 250 257 263 266 266 264 260 255 249 243 237 231 228 229 230 230 232
171 175 235 246 290 314 265 309 33 91 109 133 139 150 218 230 211 189 212 264 263 224 213 184 155 143 126 111 161 196 193 193 196 199 202 207 212 211 206 204 204 209 218 224 227 233 245 263 276 279 271 263 256 252 248 242 237 233 230 230 232 235 240
118 115 284 297 35 212 223 248 245 148 126 171 160 139 170 231 318 207 199 234 234 193 155 150 144 130 112 118 229 208 193 195 196 199 202 204 204 197 192 195 196 192 188 172 148 135 109 42 334 319 300 280 263 251 247 243 238 235 234 236 240 245 249
75 129 163 204 194 205 233 255 261 309 329 203 152 118 157 250 338 358 179 203 197 132 121 146 140 123 140 204 231 87 146 173 175 175 175 169 163 157 154 155 146 137 137 130 123 125 111 52 351 333 314 299 286 271 259 251 245 243 243 246 250 252 248
297 144 181 218 206 228 273 281 298 315 318 146 119 119 193 269 338 26 119 184 155 128 125 124 97 95 162 174 117 102 123 136 135 138 140 138 138 133 128 131 133 132 139 145 149 165 181 315 340 333 320 309 301 290 275 262 257 256 257 257 256 251 243
324 315 216 245 255 254 287 309 310 316 337 89 127 179 232 297 350 84 98 110 126 120 116 106 84 87 110 111 106 107 113 116 117 123 129 129 132 134 132 133 135 136 152 179 197 213 227 251 300 321 316 309 307 297 283 274 272 270 266 259 253 247 241
356 317 236 267 253 253 342 327 317 327 54 150 206 207 263 319 64 97 93 91 101 103 101 99 98 97 94 97 101 103 104 106 106 112 123 128 132 137 132 126 127 128 142 188 217 232 245 268 292 305 304 302 309 304 292 288 284 276 266 258 252 246 240
57 309 296 244 191 297 339 333 325 9 95 174 164 121 86 82 95 93 89 89 94 97 98 97 97 95 91 90 93 95 95 95 93 96 105 108 108 110 105 101 105 97 67 12 317 296 295 298 295 298 304 301 306 305 296 290 284 275 267 259 253 246 238
103 252 279 223 206 297 338 347 1 35 65 136 133 117 104 98 93 91 89 88 88 90 91 89 87 87 85 84 86 87 87 87 86 86 86 82 82 83 79 76 77 63 26 1 356 343 322 304 285 281 288 288 291 297 294 288 281 274 266 256 249 242 236
152 190 239 258 248 341 8 19 33 48 73 101 110 107 102 95 91 92 91 89 89 90 89 86 84 83 81 81 82 81 81 82 82 80 78 76 75 71 62 54 43 26 9 359 357 347 323 311 301 292 287 285 288 291 290 284 275 268 262 251 242 236 232
150 160 263 292 326 41 46 48 58 73 85 89 89 91 91 88 90 93 91 89 89 89 89 89 87 87 87 86 84 82 83 84 84 84 85 82 80 74 63 46 23 7 358 343 333 328 323 317 310 302 292 284 286 286 282 276 267 261 255 245 236 231 226
141 146 284 306 327 43 68 76 82 88 92 92 89 90 90 91 93 93 91 91 90 87 87 89 90 92 93 90 89 88 88 89 92 93 91 90 89 81 61 39 18 341 314 307 310 318 320 314 310 302 288 281 285 284 276 271 264 256 245 234 228 219 207
143 151 170 247 303 53 82 90 89 90 96 98 95 95 96 96 95 94 93 93 90 87 88 90 94 96 93 90 89 88 86 86 87 82 79 82 85 76 60 40 13 348 330 326 328 325 316 310 307 299 288 283 283 278 271 264 255 242 229 219 212 202 196
63 123 150 182 187 62 77 91 90 87 95 99 98 96 94 92 92 93 91 88 86 87 88 91 95 96 93 89 87 84 84 86 83 76 75 78 79 74 66 47 11 345 331 332 335 327 314 307 302 295 288 280 269 261 255 242 221 210 210 207 201 198 201
167 135 161 178 147 89 85 100 97 96 99 100 98 94 90 88 88 89 89 87 85 84 83 84 88 91 93 92 88 84 85 87 85 84 84 85 86 85 76 57 19 348 338 338 332 316 303 297 292 285 276 259 245 238 232 219 202 191 191 193 191 191 194
215 55 116 140 106 87 79 86 96 100 99 98 98 94 91 93 92 90 89 86 81 77 75 76 79 86 93 97 97 94 92 88 87 90 88 84 82 77 70 56 24 356 346 334 319 307 298 291 284 277 261 237 221 214 205 199 194 188 187 186 181 177 177
24 65 94 98 88 83 81 84 91 92 88 90 92 88 86 88 88 86 85 81 78 77 76 73 73 77 85 94 99 100 97 85 74 77 78 69 61 56 53 49 24 351 334 319 309 301 294 287 276 262 243 222 206 196 189 185 183 181 178 175 171 167 161
76 78 92 95 90 86 87 89 88 85 84 85 82 78 78 80 80 82 82 79 77 77 76 73 71 71 72 75 74 72 68 57 48 53 61 48 22 4 353 347 337 311 295 300 295 289 286 276 256 238 226 211 199 191 185 181 181 181 179 180 183 187 184